Location: BGSU Observatory
(41.3799°N, 83.6397°W)
Time: 01:18:55
(UTC-05:00)

Amateur Radio Satellites - All Passes

Search period start: 26 November 2014 00:48
Search period end: 27 November 2014 00:48
Location: BGSU Observatory, 41.3799°N, 83.6397°W

Satellite Date Start Highest point End Downlink Frequencies (MHz)
Time Altitude Azimuth
DANDE 26 Nov 00:50:46 00:55:11 60° 262° (W) 01:01:11 436.750
UNISAT 6 26 Nov 00:59:42 01:00:40 11° 299° (WNW) 01:01:37 437.425
BUGSAT 1 26 Nov 00:59:44 01:01:59 15° 296° (WNW) 01:04:13 437.445
MaSat-1 26 Nov 01:01:15 01:03:34 76° 64° (ENE) 01:05:57 437.345
ITUPSAT 1 26 Nov 01:04:39 01:09:26 71° 74° (ENE) 01:14:15 437.325
ISS 26 Nov 01:08:15 01:11:15 31° 334° (NNW) 01:14:15 145.825
YUBILEINY 26 Nov 01:09:50 01:13:59 14° 75° (ENE) 01:18:08 435.215
SWISSCUBE 26 Nov 01:15:39 01:20:27 83° 257° (WSW) 01:25:18 437.505
STARS 26 Nov 01:36:16 01:39:37 22° 66° (ENE) 01:42:57 437.465
Oscar 19 26 Nov 01:37:49 01:42:36 37° 98° (E) 01:47:23 437.125/150
BEESAT 26 Nov 01:47:07 01:51:40 43° 261° (W) 01:56:15 436.000
RS-15 26 Nov 01:51:00 02:02:17 85° 240° (WSW) 02:14:04 29.354- 29.394
AUBIESAT-1 26 Nov 02:00:43 02:03:04 15° 265° (W) 02:05:33 437.475
M-CUBED/EXP-1 PRIME 26 Nov 02:06:52 02:08:22 12° 267° (W) 02:09:56 437.505
KKS-1 26 Nov 02:15:20 02:19:48 82° 76° (ENE) 02:24:16 437.445
ITAMSAT 1 26 Nov 02:30:33 02:35:31 45° 99° (E) 02:40:26 435.822/435.867
ITUPSAT 1 26 Nov 02:45:51 02:47:49 12° 270° (W) 02:49:46 437.325
ISS 26 Nov 02:46:46 02:48:40 14° 354° (N) 02:50:34 145.825
YUBILEINY 26 Nov 03:00:26 03:09:13 78° 94° (E) 03:18:00 435.215
Gurwin Techsat 1B 26 Nov 03:02:05 03:07:16 52° 100° (E) 03:12:25 435.225
STARS 26 Nov 03:11:50 03:15:53 36° 262° (W) 03:19:57 437.465
Oscar 19 26 Nov 03:17:29 03:21:46 27° 294° (WNW) 03:26:03 437.125/150
MOZHAYETS 4 26 Nov 03:22:22 03:24:11 12° 61° (ENE) 03:26:01
HORYU 2 26 Nov 03:23:53 03:28:02 36° 98° (E) 03:32:10 437.375
RS-15 26 Nov 04:05:28 04:13:03 21° 260° (W) 04:20:53 29.354- 29.394
PCSat 26 Nov 04:10:16 04:14:50 27° 48° (NE) 04:19:22 145.827
ITAMSAT 1 26 Nov 04:10:41 04:14:42 23° 296° (WNW) 04:18:42 435.822/435.867
SO-50 26 Nov 04:16:59 04:21:30 87° 122° (ESE) 04:26:11 436.795
AO-7 26 Nov 04:20:58 04:28:54 45° 100° (E) 04:36:47 29.400- 29.500
ISS 26 Nov 04:23:56 04:26:17 18° 15° (NNE) 04:28:38 145.825
PRISM 26 Nov 04:34:44 04:36:35 13° 62° (ENE) 04:38:25 437.425
JAS-2 26 Nov 04:40:21 04:45:25 21° 88° (E) 04:50:04 435.910
Gurwin Techsat 1B 26 Nov 04:42:56 04:46:50 21° 297° (WNW) 04:50:44 435.225
BEESAT 3 26 Nov 04:49:45 04:53:40 36° 51° (NE) 04:57:32 437.485
MOZHAYETS 4 26 Nov 04:56:12 05:00:46 74° 258° (WSW) 05:05:25
YUBILEINY 26 Nov 05:00:20 05:06:59 23° 295° (WNW) 05:13:39 435.215
HORYU 2 26 Nov 05:01:02 05:04:30 22° 294° (WNW) 05:07:58 437.375
CUBESAT XI-V 26 Nov 05:04:28 05:05:39 11° 60° (ENE) 05:06:49 437.345
BEESAT 2 26 Nov 05:05:07 05:09:12 47° 53° (NE) 05:13:14 435.950
O/OREOS (USA 219) 26 Nov 05:30:59 05:34:25 22° 102° (ESE) 05:37:50 437.305
STRAND 1 26 Nov 05:32:51 05:36:51 23° 64° (ENE) 05:40:52 437.568
AIST 2 26 Nov 05:39:40 05:43:54 53° 54° (NE) 05:48:04 435.215
CUTE-I 26 Nov 05:51:55 05:55:35 19° 92° (E) 05:59:13 437.470
PCSat 26 Nov 05:53:16 05:58:29 49° 247° (WSW) 06:03:40 145.827
SO-50 26 Nov 05:59:59 06:02:44 15° 322° (NW) 06:05:31 436.795
ISS 26 Nov 06:00:07 06:03:25 67° 33° (NNE) 06:06:42 145.825
PRISM 26 Nov 06:07:27 06:11:36 61° 259° (WSW) 06:15:49 437.425
AO-7 26 Nov 06:13:53 06:21:36 43° 299° (WNW) 06:29:19 29.400- 29.500
JAS-2 26 Nov 06:24:06 06:31:10 66° 289° (WNW) 06:37:23 435.910
AIST 1 26 Nov 06:26:02 06:29:37 24° 73° (ENE) 06:33:09
BEESAT 3 26 Nov 06:28:26 06:31:41 22° 248° (WSW) 06:34:53 437.485
CUBESAT XI-V 26 Nov 06:37:37 06:42:21 88° 257° (WSW) 06:47:07 437.345
BEESAT 2 26 Nov 06:44:23 06:47:07 17° 250° (WSW) 06:49:50 435.950
Cubesat XI-IV 26 Nov 06:49:18 06:54:36 65° 102° (ESE) 06:59:52 437.490
GONETS M04 26 Nov 06:59:03 07:03:59 17° 76° (ENE) 07:08:55
O/OREOS (USA 219) 26 Nov 07:09:27 07:13:35 35° 299° (WNW) 07:17:43 437.305
STRAND 1 26 Nov 07:10:51 07:15:45 44° 261° (W) 07:20:40 437.568
AIST 2 26 Nov 07:19:33 07:22:05 16° 251° (WSW) 07:24:37 435.215
CUTE-I 26 Nov 07:30:47 07:35:59 55° 289° (WNW) 07:41:08 437.470
ISS 26 Nov 07:37:52 07:39:41 14° 229° (SW) 07:41:31 145.825
AIST 1 26 Nov 08:03:31 08:07:15 28° 271° (W) 08:10:56
JAS-2 26 Nov 08:11:50 08:14:40 13° 310° (NW) 08:17:23 435.910
HO-68 26 Nov 08:28:18 08:33:53 24° 93° (E) 08:39:25 435.675
Cubesat XI-IV 26 Nov 08:30:43 08:34:09 18° 299° (WNW) 08:37:33 437.490
GOMX 1 26 Nov 08:42:18 08:44:10 13° 91° (E) 08:46:02 467.674
CUTE 1.7 & AOD 2 26 Nov 08:45:52 08:49:11 21° 94° (E) 08:52:29 437.475
GONETS M04 26 Nov 08:50:34 08:59:22 85° 96° (E) 09:08:16
BRITE-PL 26 Nov 09:10:22 09:14:13 36° 98° (E) 09:18:07 437.365/2234.400
ANTELSAT 26 Nov 09:13:59 09:16:15 14° 63° (ENE) 09:18:31 437.575/2403.000
UKube-1 26 Nov 09:14:00 09:15:31 12° 91° (E) 09:17:01 .
SEEDS 26 Nov 09:18:04 09:22:08 42° 98° (E) 09:26:11 437.485
Oscar 11 26 Nov 09:23:44 09:26:48 19° 93° (E) 09:29:51 145.826/435.025
POLYITAN 1 26 Nov 09:28:49 09:31:08 15° 64° (ENE) 09:33:27 437.675
QB50P2 26 Nov 09:30:35 09:33:02 15° 64° (ENE) 09:35:29 145.880/145.840
AAUSAT CUBESAT 2 26 Nov 09:34:24 09:38:31 48° 99° (E) 09:42:36 437.432
DOVE 4 26 Nov 09:35:24 09:39:18 37° 98° (E) 09:43:17 437.250
DUCHIFAT 1 26 Nov 09:36:07 09:38:52 17° 65° (ENE) 09:41:36 145.980
DELFI C3 26 Nov 09:39:01 09:42:18 22° 94° (E) 09:45:33 145.870
CUBEBUG 2 26 Nov 09:42:54 09:45:48 18° 93° (E) 09:48:43 437.445
UWE-3 26 Nov 09:42:57 09:45:28 15° 92° (E) 09:47:59 435.000/436.395/437.385
CANX-2 26 Nov 09:46:20 09:50:37 73° 284° (WNW) 09:54:54 2200.000
DX 1 26 Nov 09:47:54 09:51:41 29° 97° (E) 09:55:27 434.975-435.025
COMPASS 1 26 Nov 09:49:47 09:54:03 83° 102° (ESE) 09:58:18 437.405
NANOSAT C BR1 26 Nov 09:54:38 09:58:11 26° 68° (ENE) 10:01:44 145.865
HUMSAT D 26 Nov 09:59:50 10:01:09 11° 90° (E) 10:02:27 437.325/437.525
QB50P1 26 Nov 10:04:15 10:08:04 33° 70° (ENE) 10:11:54 145.935-145.965
TIGRISAT 26 Nov 10:05:52 10:09:59 49° 73° (ENE) 10:14:05 435.000
CINEMA 3 26 Nov 10:09:17 10:13:26 55° 100° (E) 10:17:43 145.822/145.860
BUGSAT 1 26 Nov 10:13:22 10:17:15 35° 71° (ENE) 10:21:06 437.445
HO-68 26 Nov 10:14:59 10:22:04 65° 291° (WNW) 10:29:06 435.675
ZACube-1 26 Nov 10:16:28 10:20:13 30° 97° (E) 10:24:02 437.345
GOMX 1 26 Nov 10:18:35 10:22:37 51° 286° (WNW) 10:26:44 467.674
VELOX 1 26 Nov 10:19:16 10:22:32 20° 94° (E) 10:25:48 145.980
UNISAT 6 26 Nov 10:19:32 10:23:47 72° 75° (ENE) 10:28:03 437.425
CUTE 1.7 & AOD 2 26 Nov 10:21:19 10:25:10 33° 290° (WNW) 10:29:00 437.475
POPSAT HIP 1 26 Nov 10:28:38 10:32:51 63° 74° (ENE) 10:37:04 437.405
AISAT 26 Nov 10:45:03 10:49:12 39° 98° (E) 10:53:19 437.250
UKube-1 26 Nov 10:47:47 10:52:05 62° 286° (WNW) 10:56:21 .
ANTELSAT 26 Nov 10:48:27 10:52:38 53° 260° (W) 10:56:49 437.575/2403.000
BRITE-PL 26 Nov 10:49:43 10:52:31 18° 294° (WNW) 10:55:20 437.365/2234.400
GONETS M04 26 Nov 10:51:04 10:57:21 21° 297° (WNW) 11:03:42
FUNcube-1 26 Nov 10:51:06 10:55:20 75° 102° (ESE) 10:59:39 145.935
SEEDS 26 Nov 10:54:48 10:57:39 18° 294° (WNW) 11:00:30 437.485
CUBEBUG 1 26 Nov 10:57:36 11:00:42 19° 93° (E) 11:03:47 437.445
Oscar 11 26 Nov 10:59:04 11:03:07 39° 289° (WNW) 11:07:09 145.826/435.025
POLYITAN 1 26 Nov 11:02:30 11:06:39 52° 260° (W) 11:10:49 437.675
QB50P2 26 Nov 11:04:24 11:08:33 50° 260° (W) 11:12:42 145.880/145.840
SO-50 26 Nov 11:09:16 11:11:58 15° 37° (NE) 11:14:41 436.795
DUCHIFAT 1 26 Nov 11:10:21 11:14:24 43° 261° (W) 11:18:28 145.980
AAUSAT CUBESAT 2 26 Nov 11:11:18 11:13:48 16° 295° (WNW) 11:16:19 437.432
DOVE 4 26 Nov 11:13:59 11:16:51 18° 293° (WNW) 11:19:46 437.250
DELFI C3 26 Nov 11:14:00 11:17:36 29° 290° (WNW) 11:21:12 145.870
UWE-3 26 Nov 11:18:11 11:22:14 46° 287° (WNW) 11:26:22 435.000/436.395/437.385
CUBEBUG 2 26 Nov 11:18:42 11:22:39 39° 288° (WNW) 11:26:41 437.445
50 SAT 26 Nov 11:19:49 11:23:54 80° 103° (ESE) 11:27:59 437.505
DX 1 26 Nov 11:24:15 11:27:49 25° 293° (WNW) 11:31:23 434.975-435.025
NANOSAT C BR1 26 Nov 11:30:24 11:34:00 26° 264° (W) 11:37:36 145.865
HUMSAT D 26 Nov 11:33:13 11:37:19 59° 286° (WNW) 11:41:28 437.325/437.525
QB50P1 26 Nov 11:40:49 11:44:02 21° 266° (W) 11:47:15 145.935-145.965
TIGRISAT 26 Nov 11:44:49 11:47:02 14° 269° (W) 11:49:15 435.000
CINEMA 3 26 Nov 11:48:09 11:50:15 14° 296° (WNW) 11:52:22 145.822/145.860
BUGSAT 1 26 Nov 11:49:41 11:52:49 20° 266° (W) 11:55:57 437.445
ZACube-1 26 Nov 11:53:07 11:56:28 23° 292° (WNW) 11:59:53 437.345
ESTCUBE 1 26 Nov 11:54:36 11:59:10 84° 103° (ESE) 12:03:42 437.505/2401.250
VELOX 1 26 Nov 11:55:10 11:59:15 37° 290° (WNW) 12:03:17 145.980
HO-68 26 Nov 12:05:26 12:08:24 13° 310° (NW) 12:11:23 435.675
POPSAT HIP 1 26 Nov 12:07:57 12:09:09 11° 270° (W) 12:10:21 437.405
TISAT 1 26 Nov 12:08:49 12:12:28 28° 96° (E) 12:16:05 437.305
SPROUT 26 Nov 12:19:35 12:23:28 33° 97° (E) 12:27:20 437.525
AISAT 26 Nov 12:22:21 12:25:34 20° 295° (WNW) 12:28:47 437.250
FUNcube-1 26 Nov 12:30:18 12:31:07 11° 298° (WNW) 12:31:56 145.935
CUBEBUG 1 26 Nov 12:33:11 12:37:14 38° 289° (WNW) 12:41:14 437.445
Gurwin Techsat 1B 26 Nov 12:47:45 12:49:24 11° 57° (ENE) 12:51:03 435.225
SO-50 26 Nov 12:48:24 12:53:18 79° 56° (ENE) 12:58:13 436.795
Oscar 19 26 Nov 12:54:43 12:59:41 55° 72° (ENE) 13:04:41 437.125/150
ITUPSAT 1 26 Nov 13:06:32 13:09:50 18° 92° (E) 13:13:06 437.325
YUBILEINY 26 Nov 13:10:58 13:18:57 38° 72° (ENE) 13:26:52 435.215
SWISSCUBE 26 Nov 13:16:47 13:20:46 25° 95° (E) 13:24:43 437.505
AO-7 26 Nov 13:32:53 13:36:47 14° 45° (NE) 13:40:41 29.400- 29.500
ESTCUBE 1 26 Nov 13:34:20 13:35:21 11° 300° (WNW) 13:36:22 437.505/2401.250
CUSAT 1 26 Nov 13:40:48 13:43:24 44° 282° (WNW) 13:45:55 437.405
AUBIESAT-1 26 Nov 13:41:04 13:45:47 45° 103° (ESE) 13:50:22 437.475
TISAT 1 26 Nov 13:44:47 13:48:12 24° 292° (WNW) 13:51:35 437.305
M-CUBED/EXP-1 PRIME 26 Nov 13:46:31 13:51:23 56° 105° (ESE) 13:56:07 437.505
BEESAT 26 Nov 13:47:18 13:51:57 48° 100° (E) 13:56:33 436.000
ITAMSAT 1 26 Nov 13:48:29 13:53:40 69° 73° (ENE) 13:58:52 435.822/435.867
SPROUT 26 Nov 13:56:06 13:59:22 22° 293° (WNW) 14:02:38 437.525
PHONESAT 2.4 26 Nov 14:04:33 14:06:31 14° 147° (SSE) 14:08:29 2401.200-2431.200
KKS-1 26 Nov 14:08:00 14:10:42 16° 92° (E) 14:13:24 437.445
DANDE 26 Nov 14:09:11 14:11:22 21° 284° (WNW) 14:13:28 436.750
RS-15 26 Nov 14:11:48 14:14:55 12° 95° (E) 14:18:01 29.354- 29.394
VERMONT LUNAR 26 Nov 14:12:53 14:15:38 21° 151° (SSE) 14:18:24 437.305
HORYU 2 26 Nov 14:22:47 14:26:45 34° 69° (ENE) 14:30:45 437.375
Gurwin Techsat 1B 26 Nov 14:23:11 14:28:30 82° 75° (ENE) 14:33:50 435.225
SO-50 26 Nov 14:31:04 14:33:13 13° 253° (WSW) 14:35:22 436.795
MaSat-1 26 Nov 14:31:06 14:32:14 12° 108° (ESE) 14:33:20 437.345
Oscar 19 26 Nov 14:35:58 14:39:21 18° 268° (W) 14:42:45 437.125/150
ITUPSAT 1 26 Nov 14:43:21 14:47:58 48° 289° (WNW) 14:52:33 437.325
JAS-2 26 Nov 14:54:09 14:57:33 14° 51° (NE) 15:00:58 435.910
SWISSCUBE 26 Nov 14:54:21 14:58:40 34° 291° (WNW) 15:02:57 437.505
STARS 26 Nov 15:01:39 15:05:48 40° 99° (E) 15:09:55 437.465
YUBILEINY 26 Nov 15:07:42 15:15:52 47° 272° (W) 15:23:59 435.215
AUBIESAT-1 26 Nov 15:16:36 15:20:27 24° 300° (WNW) 15:24:15 437.475
AO-7 26 Nov 15:19:47 15:27:52 61° 66° (ENE) 15:36:01 29.400- 29.500
M-CUBED/EXP-1 PRIME 26 Nov 15:22:28 15:25:58 20° 301° (WNW) 15:29:27 437.505
BEESAT 26 Nov 15:26:03 15:29:25 19° 296° (WNW) 15:32:47 436.000
ITAMSAT 1 26 Nov 15:30:54 15:33:39 14° 270° (W) 15:36:24 435.822/435.867
O/OREOS (USA 219) 26 Nov 15:39:45 15:44:01 42° 63° (ENE) 15:48:16 437.305
PHONESAT 2.4 26 Nov 15:41:12 15:44:46 46° 162° (SSE) 15:48:21 2401.200-2431.200
KKS-1 26 Nov 15:43:20 15:47:36 47° 288° (WNW) 15:51:51 437.445
VERMONT LUNAR 26 Nov 15:50:10 15:53:44 60° 167° (SSE) 15:57:19 437.305
HORYU 2 26 Nov 16:00:02 16:03:29 22° 265° (W) 16:06:58 437.375
MaSat-1 26 Nov 16:04:04 16:06:33 25° 300° (WNW) 16:08:53 437.345
Gurwin Techsat 1B 26 Nov 16:07:05 16:09:05 12° 271° (W) 16:11:05 435.225
RS-15 26 Nov 16:14:06 16:24:51 64° 115° (ESE) 16:35:34 29.354- 29.394
JAS-2 26 Nov 16:33:30 16:40:59 60° 70° (ENE) 16:48:42 435.910
Cubesat XI-IV 26 Nov 16:34:28 16:37:25 15° 59° (ENE) 16:40:21 437.490
STARS 26 Nov 16:38:53 16:42:00 19° 295° (WNW) 16:45:07 437.465
MOZHAYETS 4 26 Nov 16:51:57 16:55:53 26° 95° (E) 16:59:47
CUTE-I 26 Nov 17:13:34 17:18:15 32° 67° (ENE) 17:22:57 437.470
AO-7 26 Nov 17:14:02 17:21:03 30° 264° (W) 17:28:10 29.400- 29.500
PHONESAT 2.4 26 Nov 17:19:43 17:23:27 80° 179° (S) 17:27:10 2401.200-2431.200
O/OREOS (USA 219) 26 Nov 17:20:03 17:23:04 18° 260° (W) 17:26:04 437.305
VERMONT LUNAR 26 Nov 17:28:31 17:32:09 77° 183° (S) 17:35:47 437.305
PRISM 26 Nov 17:51:38 17:54:40 19° 94° (E) 17:57:40 437.425
Cubesat XI-IV 26 Nov 18:11:28 18:16:50 78° 257° (WSW) 18:22:13 437.490
JAS-2 26 Nov 18:19:51 18:26:20 30° 268° (W) 18:33:02 435.910
RS-15 26 Nov 18:27:37 18:37:46 42° 319° (NW) 18:48:04 29.354- 29.394
MOZHAYETS 4 26 Nov 18:28:59 18:33:06 31° 291° (WNW) 18:37:11
CUBESAT XI-V 26 Nov 18:35:17 18:39:01 23° 94° (E) 18:42:42 437.345
PCSat 26 Nov 18:53:06 18:57:04 21° 106° (ESE) 19:01:03 145.827
CUTE-I 26 Nov 18:53:26 18:58:15 33° 263° (W) 19:03:05 437.470
AIST 1 26 Nov 18:57:10 18:59:35 15° 85° (E) 19:02:01
HO-68 26 Nov 18:58:16 19:03:09 20° 55° (NE) 19:08:03 435.675
PHONESAT 2.4 26 Nov 18:58:31 19:02:09 52° 196° (SSW) 19:05:46 2401.200-2431.200
GONETS M04 26 Nov 19:01:07 19:09:26 43° 73° (ENE) 19:17:38
VERMONT LUNAR 26 Nov 19:07:04 19:10:28 38° 201° (SSW) 19:13:50 437.305
STRAND 1 26 Nov 19:21:05 19:26:10 62° 101° (ESE) 19:31:12 437.568
PRISM 26 Nov 19:26:25 19:30:20 36° 290° (WNW) 19:34:12 437.425
CUTE 1.7 & AOD 2 26 Nov 19:40:02 19:42:42 17° 65° (ENE) 19:45:22 437.475
AIST 2 26 Nov 19:41:27 19:42:35 11° 107° (ESE) 19:43:42 435.215
GOMX 1 26 Nov 19:50:33 19:53:33 17° 66° (ENE) 19:56:28 467.674
UKube-1 26 Nov 20:10:05 20:11:36 12° 61° (ENE) 20:13:06 .
SEEDS 26 Nov 20:10:57 20:14:36 30° 70° (ENE) 20:18:18 437.485
CUBESAT XI-V 26 Nov 20:12:17 20:16:31 35° 290° (WNW) 20:20:43 437.345
Oscar 11 26 Nov 20:19:36 20:22:09 16° 64° (ENE) 20:24:43 145.826/435.025
BRITE-PL 26 Nov 20:20:59 20:25:46 48° 73° (ENE) 20:30:12 437.365/2234.400
BEESAT 3 26 Nov 20:22:29 20:26:33 70° 120° (ESE) 20:30:42 437.485
AAUSAT CUBESAT 2 26 Nov 20:26:10 20:29:54 33° 70° (ENE) 20:33:39 437.432
DELFI C3 26 Nov 20:29:04 20:31:29 16° 65° (ENE) 20:33:55 145.870
AIST 1 26 Nov 20:32:34 20:36:48 47° 282° (WNW) 20:41:05
PCSat 26 Nov 20:34:45 20:40:02 55° 304° (WNW) 20:45:23 145.827
PHONESAT 2.4 26 Nov 20:38:03 20:40:28 17° 211° (SSW) 20:42:53 2401.200-2431.200
BEESAT 2 26 Nov 20:38:30 20:42:38 87° 303° (WNW) 20:46:50 435.950
CANX-2 26 Nov 20:39:27 20:43:39 81° 76° (ENE) 20:47:54 2200.000
DOVE 4 26 Nov 20:41:23 20:45:41 41° 72° (ENE) 20:49:46 437.250
COMPASS 1 26 Nov 20:41:36 20:45:40 56° 74° (ENE) 20:49:47 437.405
UWE-3 26 Nov 20:41:42 20:43:43 13° 64° (ENE) 20:45:44 435.000/436.395/437.385
CUBEBUG 2 26 Nov 20:42:30 20:45:03 16° 65° (ENE) 20:47:35 437.445
HO-68 26 Nov 20:42:47 20:49:59 85° 254° (WSW) 20:57:14 435.675
DX 1 26 Nov 20:43:56 20:47:36 27° 68° (ENE) 20:51:17 434.975-435.025
RS-15 26 Nov 20:46:29 20:54:15 21° 353° (N) 21:02:10 29.354- 29.394
VERMONT LUNAR 26 Nov 20:48:07 20:48:18 10° 216° (SW) 20:48:29 437.305
GONETS M04 26 Nov 20:58:05 21:06:11 43° 273° (W) 21:14:13
STRAND 1 26 Nov 21:01:37 21:04:50 17° 299° (WNW) 21:08:03 437.568
CINEMA 3 26 Nov 21:11:31 21:15:46 51° 74° (ENE) 21:19:52 145.822/145.860
ZACube-1 26 Nov 21:13:25 21:16:50 25° 68° (ENE) 21:20:13 437.345
CUTE 1.7 & AOD 2 26 Nov 21:14:16 21:18:17 44° 261° (W) 21:22:20 437.475
AIST 2 26 Nov 21:16:21 21:20:34 73° 304° (WNW) 21:24:53 435.215
VELOX 1 26 Nov 21:17:44 21:20:58 20° 65° (ENE) 21:24:13 145.980
GOMX 1 26 Nov 21:26:45 21:31:23 49° 260° (W) 21:35:44 467.674
UKube-1 26 Nov 21:42:49 21:47:10 72° 257° (WSW) 21:51:32 .
AISAT 26 Nov 21:43:28 21:47:35 37° 70° (ENE) 21:51:42 437.250
SEEDS 26 Nov 21:47:11 21:50:28 22° 266° (W) 21:53:46 437.485
FUNcube-1 26 Nov 21:47:24 21:51:32 58° 74° (ENE) 21:55:38 145.935
Oscar 11 26 Nov 21:53:45 21:57:55 49° 261° (W) 22:02:07 145.826/435.025
CUBEBUG 1 26 Nov 21:54:37 21:57:35 18° 65° (ENE) 22:00:33 437.445
TIGRISAT 26 Nov 22:00:24 22:01:07 10° 90° (E) 22:01:50 435.000
BRITE-PL 26 Nov 22:01:06 22:04:26 18° 267° (W) 22:07:39 437.365/2234.400
DELFI C3 26 Nov 22:02:32 22:06:25 44° 261° (W) 22:10:21 145.870
AAUSAT CUBESAT 2 26 Nov 22:02:35 22:05:39 20° 267° (W) 22:08:45 437.432
BEESAT 3 26 Nov 22:02:48 22:05:16 15° 319° (NW) 22:07:45 437.485
50 SAT 26 Nov 22:08:53 22:12:47 50° 73° (ENE) 22:16:42 437.505
UNISAT 6 26 Nov 22:12:47 22:15:26 15° 92° (E) 22:18:07 437.425
UWE-3 26 Nov 22:15:41 22:19:50 55° 260° (W) 22:23:57 435.000/436.395/437.385
CUBEBUG 2 26 Nov 22:17:20 22:21:26 45° 261° (W) 22:25:28 437.445
BEESAT 2 26 Nov 22:19:44 22:21:35 13° 321° (NW) 22:23:26 435.950
DX 1 26 Nov 22:20:00 22:23:46 28° 264° (W) 22:27:32 434.975-435.025
COMPASS 1 26 Nov 22:20:14 22:21:47 12° 270° (W) 22:23:19 437.405
DOVE 4 26 Nov 22:20:26 22:23:36 18° 266° (W) 22:26:40 437.250
PCSat 26 Nov 22:23:06 22:24:43 11° 325° (NW) 22:26:20 145.827
HUMSAT D 26 Nov 22:25:33 22:29:41 84° 257° (WSW) 22:33:49 437.325/437.525
HO-68 26 Nov 22:35:00 22:38:38 14° 272° (W) 22:42:18 435.675
CUSAT 1 26 Nov 22:36:36 22:37:54 11° 71° (ENE) 22:39:17 437.405
ANTELSAT 26 Nov 22:40:35 22:44:33 30° 97° (E) 22:48:34 437.575/2403.000
ISS 26 Nov 22:42:29 22:44:56 20° 133° (SE) 22:47:24 145.825
POLYITAN 1 26 Nov 22:48:53 22:52:22 24° 95° (E) 22:55:49 437.675
ZACube-1 26 Nov 22:49:32 22:53:08 27° 264° (W) 22:56:42 437.345
QB50P2 26 Nov 22:50:31 22:54:03 25° 95° (E) 22:57:34 145.880/145.840
CINEMA 3 26 Nov 22:51:04 22:53:15 14° 268° (W) 22:55:23 145.822/145.860
VELOX 1 26 Nov 22:53:04 22:57:17 40° 261° (W) 23:01:31 145.980
ESTCUBE 1 26 Nov 22:54:19 22:58:51 78° 75° (ENE) 23:03:26 437.505/2401.250
DUCHIFAT 1 26 Nov 22:55:53 22:59:33 28° 96° (E) 23:03:11 145.980
AIST 2 26 Nov 22:58:33 23:00:00 11° 323° (NW) 23:01:27 435.215
TISAT 1 26 Nov 23:02:03 23:05:24 23° 67° (ENE) 23:08:46 437.305
RS-15 26 Nov 23:02:27 23:11:46 29° 28° (NNE) 23:21:19 29.354- 29.394
DANDE 26 Nov 23:04:33 23:07:37 17° 74° (ENE) 23:11:14 436.750
SPROUT 26 Nov 23:14:18 23:17:57 27° 69° (ENE) 23:21:35 437.525
NANOSAT C BR1 26 Nov 23:15:09 23:19:14 47° 100° (E) 23:23:18 145.865
AISAT 26 Nov 23:20:56 23:24:19 21° 266° (W) 23:27:42 437.250
QB50P1 26 Nov 23:25:06 23:29:18 63° 101° (E) 23:33:29 145.935-145.965
FUNcube-1 26 Nov 23:26:56 23:28:15 11° 270° (W) 23:29:35 145.935
CUBEBUG 1 26 Nov 23:29:20 23:33:36 45° 261° (W) 23:37:53 437.445
BUGSAT 1 26 Nov 23:31:10 23:35:13 59° 101° (E) 23:39:12 437.445
TIGRISAT 26 Nov 23:33:53 23:38:19 73° 285° (WNW) 23:42:49 435.000
50 SAT 26 Nov 23:46:44 23:48:24 12° 269° (W) 23:50:04 437.505
UNISAT 6 26 Nov 23:48:10 23:52:29 50° 287° (WNW) 23:56:52 437.425
POPSAT HIP 1 26 Nov 23:50:03 23:54:15 68° 285° (WNW) 23:58:26 437.405
MaSat-1 27 Nov 00:07:59 00:09:33 16° 58° (ENE) 00:11:09 437.345
ITUPSAT 1 27 Nov 00:13:39 00:17:21 23° 65° (ENE) 00:21:04 437.325
CUSAT 1 27 Nov 00:16:22 00:21:08 89° 261° (W) 00:27:36 437.405
ANTELSAT 27 Nov 00:17:34 00:21:14 26° 292° (WNW) 00:24:59 437.575/2403.000
ISS 27 Nov 00:18:09 00:21:21 48° 329° (NNW) 00:24:34 145.825
SWISSCUBE 27 Nov 00:23:40 00:27:50 30° 68° (ENE) 00:32:01 437.505
POLYITAN 1 27 Nov 00:24:40 00:28:17 28° 291° (WNW) 00:31:54 437.675
QB50P2 27 Nov 00:26:21 00:29:55 27° 291° (WNW) 00:33:29 145.880/145.840
AUBIESAT-1 27 Nov 00:30:40 00:34:40 56° 68° (ENE) 00:39:04 437.475
DUCHIFAT 1 27 Nov 00:31:55 00:35:18 24° 292° (WNW) 00:38:41 145.980
M-CUBED/EXP-1 PRIME 27 Nov 00:36:31 00:40:34 71° 70° (ENE) 00:45:03 437.505
TISAT 1 27 Nov 00:37:18 00:41:05 31° 263° (W) 00:44:54 437.305
